Regional Weather Roundup
Issued by NWS

Home | Current Version | Previous Version | Graphics & Text | Print | Product List | Glossary On
Versions: 1 2 3 4 5 6 7 8 9 10 11 12 13 14 15 16 17 18 19 20 21 22 23 24 25 26 27 28 29 30 31 32 33 34 35 36 37 38 39 40 41 42 43 44 45 46 47 48 49 50
000
ASUS45 KABQ 290710
RWRNM
WEATHER ROUNDUP FOR NEW MEXICO
NATIONAL WEATHER SERVICE ALBUQUERQUE NM
1200 AM MST MON DEC 29 2014

NOTE: "FAIR" MEANS FEW OR NO CLOUDS BELOW 12,000 FEET AGL WITH NO
       SIGNIFICANT WEATHER OR OBSTRUCTIONS TO VISION.

      THIS PRODUCT IS RELEASED AS TWO VERSIONS.  ONE VERSION NEAR
      THE TOP OF THE HOUR CONTAINING PRELIMINARY DATA FROM ALBUQUERQUE
      AND OTHER STATIONS.  A FINAL VERSION WITH ADDITIONAL DATA IS
      ISSUED ABOUT 10 MINUTES AFTER THE HOUR.

NMZ501-503-504-510>518-290800-
NORTHWEST PLATEAU/NORTHCENTRAL MOUNTAINS

CITY           SKY/WX    TMP DP  RH WIND       PRES   REMARKS
FARMINGTON     CLEAR      9   5  84 NE7       30.04F WCI  -2
LOS ALAMOS     PTCLDY    22   7  51 CALM      30.02F
SANTA FE       CLEAR     15   6  67 NW10G18   30.02F WCI   2
TAOS           CLOUDY    10   3  72 E3        30.02F
ANGEL FIRE     FAIR      10  -1  61 CALM      29.99S

$$
NMZ402-403-502-505>509-290800-
WESTCENTRAL MOUNTAINS/SOUTHWEST MOUNTAINS

CITY           SKY/WX    TMP DP  RH WIND       PRES   REMARKS
GALLUP         CLEAR      7   2  80 E5        30.06F WCI  -2
GRANTS         CLEAR      8   2  78 CALM      30.06F
SILVER CITY    CLEAR     32  10  40 NW14      30.11F WCI  22

$$
NMZ407-409-411-412-290800-
SOUTHERN DESERTS

CITY           SKY/WX    TMP DP  RH WIND       PRES   REMARKS
LORDSBURG      FAIR      30  21  69 SW7       30.11F WCI  23
DEMING         PTCLDY    35  22  58 SW7       30.10F WCI  29
LAS CRUCES     MOCLDY    35  29  80 CALM      30.10F
HOLLOMAN AFB   PTCLDY    34  23  62 SE6       30.08S WCI  29
ALAMOGORDO     PTCLDY    32  19  59 S7        30.09S WCI  26
T OR C         CLEAR     30  16  56 CALM      30.05F

$$
NMZ519>523-290800-
CENTRAL VALLEYS/CENTRAL HIGHLANDS

CITY           SKY/WX    TMP DP  RH WIND       PRES   REMARKS
ALBUQUERQUE    PTCLDY    23  11  60 SE7       30.06F WCI  15
DOUBLE EAGLE   PTCLDY    15   6  70 SW6       30.06S WCI   6
MORIARTY ARPT  FAIR      13   6  73 N3        30.03F
CLINES CORNERS PTCLDY    16   5  62 NW18      29.96F WCI   0
BELEN          FAIR      16   9  73 N5        30.07R WCI   9
SOCORRO        FAIR      24  10  53 NW5       30.07F WCI  18

$$
NMZ524>526-539-540-290800-
SOUTHCENTRAL MOUNTAINS

CITY           SKY/WX    TMP DP  RH WIND       PRES   REMARKS
RUIDOSO        PTCLDY    28   7  40 CALM      30.04F

$$
NMZ527>531-290800-
NORTHEAST HIGHLANDS/NORTHEAST PLAINS

CITY           SKY/WX    TMP DP  RH WIND       PRES   REMARKS
LAS VEGAS      PTCLDY    22   6  50 SE5       29.95S WCI  16
RATON          PTCLDY    12   6  77 VRB5      29.94F WCI   4
CLAYTON        PTCLDY    28  10  46 NW10      29.94F WCI  19

$$
NMZ532>537-290800-
EASTCENTRAL PLAINS

CITY           SKY/WX    TMP DP  RH WIND       PRES   REMARKS
TUCUMCARI      CLEAR     32  14  47 W5        29.97S WCI  27
CANNON AFB     PTCLDY    34  10  36 NW10      29.99R WCI  26
CLOVIS AIRPORT MOCLDY    34   9  35 W20       29.96F WCI  22

$$
NMZ028-029-538-290800-
SOUTHEAST PLAINS

CITY           SKY/WX    TMP DP  RH WIND       PRES   REMARKS
ROSWELL        CLOUDY    35  21  56 N5        30.01F WCI  31
ARTESIA        MOCLDY    39  19  45 W7        30.02F WCI  34
CARLSBAD       MOCLDY    36  28  73 CALM      30.01F
HOBBS          MOCLDY    32  32 100 S6        30.02S WCI  26


$$



USA.gov is the U.S. government's official web portal to all federal, state and local government web resources and services.